星链-31379 (STARLINK-31379 )

导读

STARLINK-31379是美国SpaceX星链星座的卫星,于2024年2月15日发射升空,归属星链互联网星座组网卫星序列。星链项目旨在为全球提供高速低延迟卫星互联网服务,该卫星发射后入轨参与星座部署,进一步拓展星链星座的全球覆盖能力,支撑卫星互联网服务的持续落地与运营。

基本信息
目录编号:
58984
目录名称:
STARLINK-31379
国际标识:
2024-031V
轨道中心:
EARTH
卫星名称:
星链-31379
卫星全名:
星链-31379 (STARLINK-31379 )
卫星状态:
在轨 (已飞行932 天)
发射日期:
2024-02-15 UTC
国别 :
美国 (US)
星等 :
--
轨道信息
数据来源 国际轨道数据
星历时间: 2026-09-04T04:20:12+0800
9小时前
查看轨道信息
半长轴: 6840.871km
偏心率: 0.0001308
轨道倾角: 53.160°
近地点辐角 87.279°
升交点赤经 187.487°
平近点角 272.836°
近地点: 461.839km
远地点: 463.629km
周期: 93.848分钟
每日圈数: 15.343899
详细信息
固有亮度:
5
最大亮度:
0.3
卫星平台:
Starlink v2.0 mini
覆盖范围:
全球
运营商:
太空探索技术公司
运营商所在国:
美国
制造商(研发单位):
太空探索技术公司
制造商所在国:
美国
使用方式:
暂无
卫星简介
星链(Starlink)计划是由太空探索技术公司(SpaceX)提出的一个巨型低轨卫星互联网星座项目,计划在2019年至2024年间在太空搭建由约1.2万颗卫星组成的“星链”网络,其中1584颗将部署在地球上空550千米处的近地轨道,并从2020年开始工作。该卫星仍在工作。
2D轨道图
3D轨道图
轨道高度分析图
轨道倾角分析图
轨道综合分析图
查看轨道综合分析图
交会数据列表
事件ID 空间交会对象 最接近时刻(TCA) 交会距离 交会风险概率(CRP) 交会风险指数(CRI) 操作
CDM_260830-182405-703105-898423
2026-08-30T
18:24:49+0000
2.028 km
极远距离
2.710542E-6 低风险 0.44
CDM_260903-083505-301905-898422
2026-09-03T
08:35:18+0000
2.352 km
极远距离
1.755937E-6 低风险 0.4
CDM_260904-140204-735105-898422
2026-09-04T
14:02:00+0000
2.385 km
极远距离
1.292045E-6 低风险 0.37